| time (UTC) | temp F | wind direction | speed knots | gust knots | rain 1hr in | rain 24hr in | rain mn in | humidity % | barometer mb |
| 20260906103011 | 68 | 115 | 1.7 | 3.5 | 0.00 | 0.00 | 0.00 | 97 | 1020.7 |
| 20260906101533 | 69 | 119 | 0.0 | 2.6 | 0.00 | 0.00 | 0.00 | 97 | 1020.8 |
| 20260906100005 | 69 | 120 | 1.7 | 3.5 | 0.00 | 0.00 | 0.00 | 97 | 1020.7 |
| 20260906094528 | 69 | 133 | 1.7 | 6.1 | 0.00 | 0.00 | 0.00 | 97 | 1020.1 |
| 20260906093054 | 69 | 112 | 1.7 | 6.1 | 0.00 | 0.00 | 0.00 | 97 | 1019.8 |
| 20260906091525 | 69 | 93 | 2.6 | 6.1 | 0.00 | 0.00 | 0.00 | 97 | 1019.5 |
| 20260906090053 | 70 | 94 | 1.7 | 6.1 | 0.00 | 0.00 | 0.00 | 96 | 1019.7 |
| 20260906084523 | 70 | 95 | 0.9 | 5.2 | 0.00 | 0.00 | 0.00 | 96 | 1019.7 |
| 20260906083051 | 70 | 96 | 2.6 | 6.1 | 0.00 | 0.00 | 0.00 | 96 | 1019.6 |
| 20260906081519 | 71 | 125 | 2.6 | 7.0 | 0.00 | 0.00 | 0.00 | 95 | 1019.6 |
| 20260906080040 | 71 | 99 | 3.5 | 7.0 | 0.00 | 0.00 | 0.00 | 95 | 1019.7 |
| 20260906074513 | 71 | 104 | 1.7 | 7.8 | 0.00 | 0.00 | 0.00 | 94 | 1019.7 |
| 20260906073040 | 71 | 75 | 4.3 | 8.7 | 0.00 | 0.00 | 0.00 | 94 | 1019.7 |
| 20260906071514 | 71 | 93 | 0.9 | 7.0 | 0.00 | 0.00 | 0.00 | 94 | 1019.8 |
| 20260906070042 | 72 | 110 | 1.7 | 8.7 | 0.00 | 0.00 | 0.00 | 94 | 1020.0 |
| 20260906064517 | 72 | 80 | 2.6 | 7.0 | 0.00 | 0.00 | 0.00 | 94 | 1020.5 |
| 20260906063043 | 72 | 68 | 2.6 | 7.8 | 0.00 | 0.00 | 0.00 | 93 | 1020.5 |
| 20260906061511 | 72 | 62 | 1.7 | 6.1 | 0.00 | 0.00 | 0.00 | 93 | 1020.5 |
| 20260906060027 | 72 | 85 | 2.6 | 7.0 | 0.00 | 0.00 | 0.00 | 92 | 1020.4 |
| 20260906054604 | 72 | 68 | 4.3 | 7.8 | 0.00 | 0.00 | 0.00 | 93 | 1020.2 |
| 20260906053024 | 72 | 84 | 1.7 | 6.1 | 0.00 | 0.00 | 0.00 | 93 | 1019.9 |
| 20260906051606 | 73 | 85 | 2.6 | 5.2 | 0.00 | 0.00 | 0.00 | 93 | 1019.9 |
| 20260906050025 | 73 | 54 | 2.6 | 5.2 | 0.00 | 0.00 | 0.00 | 92 | 1019.7 |
| 20260906044550 | 73 | 62 | 2.6 | 7.0 | 0.00 | 0.00 | 0.00 | 92 | 1019.9 |
| 20260906043018 | 74 | 66 | 1.7 | 5.2 | 0.00 | 0.00 | 0.00 | 91 | 1019.8 |
| 20260906041542 | 74 | 83 | 0.9 | 3.5 | 0.00 | 0.00 | 0.00 | 91 | 1019.8 |
| 20260906040026 | 74 | 81 | 0.9 | 3.5 | 0.00 | 0.00 | 0.00 | 91 | 1019.7 |
| 20260906034555 | 74 | 60 | 0.0 | 3.5 | 0.00 | 0.00 | 0.00 | 91 | 1019.8 |
| 20260906033038 | 75 | 62 | 1.7 | 5.2 | 0.00 | 0.00 | 0.00 | 90 | 1019.6 |
| 20260906031545 | 75 | 87 | 0.0 | 3.5 | 0.00 | 0.00 | 0.00 | 90 | 1019.5 |
| 20260906030016 | 75 | 92 | 0.9 | 5.2 | 0.00 | 0.00 | 0.00 | 90 | 1019.2 |
| 20260906024542 | 75 | 84 | 1.7 | 5.2 | 0.00 | 0.00 | 0.00 | 90 | 1019.2 |
| 20260906023104 | 75 | 104 | 1.7 | 5.2 | 0.00 | 0.00 | 0.00 | 90 | 1019.0 |
| 20260906021528 | 76 | 65 | 2.6 | 5.2 | 0.00 | 0.00 | 0.00 | 90 | 1018.9 |
| 20260906020101 | 76 | 82 | 2.6 | 7.0 | 0.00 | 0.00 | 0.00 | 90 | 1018.6 |
| 20260906020002 | 76 | 85 | 1.7 | 7.0 | 0.00 | 0.00 | 0.00 | 90 | 1018.6 |
| 20260906014532 | 77 | 81 | 2.6 | 5.2 | 0.00 | 0.00 | 0.00 | 89 | 1018.3 |
| 20260906013109 | 77 | 77 | 0.9 | 3.5 | 0.00 | 0.00 | 0.00 | 88 | 1018.1 |
| 20260906011526 | 78 | 87 | 0.0 | 0.9 | 0.00 | 0.00 | 0.00 | 88 | 1017.8 |
| 20260906010052 | 78 | 89 | 0.0 | 2.6 | 0.00 | 0.00 | 0.00 | 88 | 1017.8 |
| 20260906004523 | 78 | 102 | 0.0 | 0.0 | 0.00 | 0.00 | 0.00 | 88 | 1017.6 |
| 20260906003054 | 78 | 102 | 0.0 | 1.7 | 0.00 | 0.00 | 0.00 | 88 | 1017.6 |
| 20260906001524 | 78 | 103 | 1.7 | 5.2 | 0.00 | 0.00 | 0.00 | 87 | 1017.4 |
| 20260906000051 | 78 | 87 | 2.6 | 6.1 | 0.00 | 0.00 | 0.00 | 86 | 1017.3 |
| 20260905234510 | 79 | 83 | 1.7 | 4.3 | 0.00 | 0.00 | 0.00 | 84 | 1017.5 |
| 20260905233055 | 80 | 64 | 2.6 | 7.8 | 0.00 | 0.00 | 0.00 | 82 | 1017.5 |
| 20260905231520 | 82 | 73 | 2.6 | 7.8 | 0.00 | 0.00 | 0.00 | 80 | 1017.6 |
| 20260905230043 | 81 | 93 | 0.9 | 9.6 | 0.00 | 0.00 | 0.00 | 82 | 1017.2 |
| 20260905224534 | 81 | 64 | 5.2 | 10.4 | 0.00 | 0.00 | 0.00 | 82 | 1017.0 |
| 20260905223048 | 82 | 44 | 5.2 | 11.3 | 0.00 | 0.00 | 0.00 | 80 | 1017.0 |
| 20260905221519 | 82 | 60 | 5.2 | 11.3 | 0.00 | 0.00 | 0.00 | 81 | 1017.1 |
| 20260905220054 | 83 | 63 | 6.1 | 12.2 | 0.00 | 0.00 | 0.00 | 82 | 1017.1 |
| 20260905214528 | 84 | 83 | 3.5 | 11.3 | 0.00 | 0.00 | 0.00 | 80 | 1017.1 |
| 20260905213101 | 83 | 49 | 5.2 | 11.3 | 0.00 | 0.00 | 0.00 | 80 | 1017.1 |
| 20260905211537 | 84 | 60 | 4.3 | 11.3 | 0.00 | 0.00 | 0.00 | 81 | 1017.1 |
| 20260905210049 | 83 | 29 | 5.2 | 11.3 | 0.00 | 0.00 | 0.00 | 83 | 1017.5 |
| 20260905204517 | 84 | 55 | 3.5 | 8.7 | 0.00 | 0.00 | 0.00 | 82 | 1017.7 |
| 20260905203047 | 83 | 59 | 4.3 | 9.6 | 0.00 | 0.00 | 0.00 | 82 | 1017.9 |
| 20260905201522 | 84 | 66 | 2.6 | 8.7 | 0.00 | 0.00 | 0.00 | 80 | 1018.0 |
| 20260905200047 | 85 | 54 | 4.3 | 9.6 | 0.00 | 0.00 | 0.00 | 81 | 1018.0 |
| 20260905194521 | 85 | 64 | 3.5 | 9.6 | 0.00 | 0.00 | 0.00 | 80 | 1018.1 |
| 20260905193043 | 85 | 34 | 3.5 | 9.6 | 0.00 | 0.00 | 0.00 | 80 | 1018.2 |
| 20260905191517 | 85 | 44 | 3.5 | 8.7 | 0.00 | 0.00 | 0.00 | 80 | 1018.4 |
| 20260905190044 | 85 | 16 | 0.9 | 7.8 | 0.00 | 0.00 | 0.00 | 80 | 1018.6 |
| 20260905184526 | 85 | 23 | 1.7 | 7.8 | 0.00 | 0.00 | 0.00 | 82 | 1018.6 |
| 20260905183049 | 84 | 67 | 3.5 | 7.8 | 0.00 | 0.00 | 0.00 | 82 | 1018.6 |
| 20260905181510 | 84 | 38 | 1.7 | 8.7 | 0.00 | 0.00 | 0.00 | 83 | 1018.7 |
| 20260905180042 | 83 | 218 | 1.7 | 7.8 | 0.00 | 0.00 | 0.00 | 84 | 1018.5 |
| 20260905174503 | 84 | 9 | 3.5 | 10.4 | 0.00 | 0.00 | 0.00 | 83 | 1018.3 |
| 20260905173100 | 85 | 31 | 5.2 | 11.3 | 0.00 | 0.00 | 0.00 | 83 | 1018.3 |
| 20260905171557 | 86 | 45 | 5.2 | 10.4 | 0.00 | 0.00 | 0.00 | 81 | 1018.4 |
| 20260905170035 | 86 | 66 | 5.2 | 11.3 | 0.00 | 0.00 | 0.00 | 81 | 1018.4 |
| 20260905164515 | 87 | 41 | 2.6 | 8.7 | 0.00 | 0.00 | 0.00 | 81 | 1018.3 |
| 20260905163026 | 87 | 68 | 5.2 | 10.4 | 0.00 | 0.00 | 0.00 | 79 | 1018.3 |
| 20260905161605 | 86 | 50 | 3.5 | 8.7 | 0.00 | 0.00 | 0.00 | 81 | 1018.2 |
| 20260905160015 | 86 | 36 | 3.5 | 7.8 | 0.00 | 0.00 | 0.00 | 82 | 1018.4 |
| 20260905154537 | 85 | 37 | 4.3 | 7.8 | 0.00 | 0.00 | 0.00 | 82 | 1018.3 |
| 20260905153057 | 84 | 64 | 4.3 | 9.6 | 0.00 | 0.00 | 0.00 | 83 | 1018.3 |
| 20260905151533 | 84 | 66 | 3.5 | 8.7 | 0.00 | 0.00 | 0.00 | 83 | 1018.3 |
| 20260905150100 | 84 | 39 | 3.5 | 7.0 | 0.00 | 0.00 | 0.00 | 83 | 1018.1 |
| 20260905144524 | 82 | 75 | 1.7 | 5.2 | 0.00 | 0.00 | 0.00 | 83 | 1017.8 |
| 20260905143036 | 82 | 66 | 1.7 | 5.2 | 0.00 | 0.00 | 0.00 | 84 | 1017.5 |
| 20260905141602 | 81 | 41 | 1.7 | 5.2 | 0.00 | 0.00 | 0.00 | 85 | 1017.6 |
| 20260905140019 | 79 | 52 | 0.0 | 2.6 | 0.00 | 0.00 | 0.00 | 88 | 1017.7 |
| 20260905134537 | 77 | 63 | 1.7 | 4.3 | 0.00 | 0.00 | 0.00 | 90 | 1017.5 |
| 20260905133102 | 76 | 16 | 0.0 | 0.0 | 0.00 | 0.00 | 0.00 | 92 | 1017.2 |
| 20260905133003 | 76 | 16 | 0.0 | 0.0 | 0.00 | 0.00 | 0.00 | 92 | 1017.1 |
| 20260905131529 | 75 | 16 | 0.0 | 0.0 | 0.00 | 0.00 | 0.00 | 93 | 1017.2 |
| 20260905130057 | 74 | 16 | 0.0 | 0.0 | 0.00 | 0.00 | 0.00 | 94 | 1016.8 |
| 20260905124525 | 73 | 16 | 0.0 | 0.0 | 0.00 | 0.00 | 0.00 | 96 | 1016.7 |
| 20260905123105 | 72 | 16 | 0.0 | 0.0 | 0.00 | 0.00 | 0.00 | 97 | 1016.5 |
| 20260905121519 | 71 | 16 | 0.0 | 0.0 | 0.00 | 0.00 | 0.00 | 98 | 1016.6 |
| 20260905120055 | 70 | 16 | 0.0 | 0.0 | 0.00 | 0.00 | 0.00 | 98 | 1016.6 |
| 20260905114523 | 70 | 41 | 0.0 | 0.0 | 0.00 | 0.00 | 0.00 | 98 | 1016.4 |
| 20260905113054 | 70 | 41 | 0.0 | 0.0 | 0.00 | 0.00 | 0.00 | 98 | 1015.9 |
| 20260905111521 | 70 | 41 | 0.0 | 0.0 | 0.00 | 0.00 | 0.00 | 97 | 1016.2 |
| 20260905110050 | 71 | 41 | 0.0 | 0.0 | 0.00 | 0.00 | 0.00 | 97 | 1016.4 |
| 20260905104517 | 71 | 64 | 0.0 | 0.0 | 0.00 | 0.00 | 0.00 | 97 | 1016.1 |